Terug naar catalogus

STARLINK-37488

ActiefCommunicatieSSO
NORAD 68859·PAYLOAD·🇺🇸 United States

Gelanceerd Apr 26, 2026 vanaf Vandenberg Space Force Base

Loading…

Volgende Passages (komende 24 uur)

TLE

VersSource: CelesTrak SupGP

Epoch: Sep 15, 2026, 03:30 UTC

1 68859C 26094W   26258.14631944 -.00060871  00000+0 -18898-2 0  2589
2 68859  97.2836 271.3990 0001604  91.8465 162.0318 15.33466126    17

Volg STARLINK-37488 in realtime met AllMySat

Download on the App Store